Regional Weather Roundup
Issued by NWS

Home | Current Version | Previous Version | Text Only | Print | Product List | Glossary On
Versions: 1 2 3 4 5 6 7 8 9 10 11 12 13 14 15 16 17 18 19 20 21 22 23 24 25 26 27 28 29 30 31 32 33 34 35 36 37 38 39 40 41 42 43 44 45 46 47 48 49 50
000
ASUS43 KMPX 190010
RWRMN
WEATHER ROUNDUP FOR MINNESOTA
NATIONAL WEATHER SERVICE TWIN CITIES/CHANHASSEN MN
600 PM CST WED JAN 18 2017


NOTE: "FAIR" INDICATES FEW OR NO CLOUDS BELOW 12,000 FEET WITH NO
SIGNIFICANT WEATHER AND/OR OBSTRUCTIONS TO VISIBILITY. N/A MEANS
CURRENT SKY AND/OR WEATHER CONDITIONS ARE NOT AVAILABLE.

MNZ060>063-068>070-190100-
   Twin Cities Metro

CITY           SKY/WX    TMP DP  RH WIND       PRES   REMARKS
TWIN CITIES    CLEAR     37  30  75 S6        29.86S
6HR MIN TEMP:  36; 6HR MAX TEMP:  41;

ST PAUL        CLEAR     35  32  88 S8        29.88R WCI  29
CRYSTAL        CLEAR     37  29  72 S5        29.84S
BLAINE         CLEAR     37  32  81 S8        29.85R
LAKEVILLE      CLEAR     34  32  93 S7        29.86S WCI  28
EDEN PRAIRIE   CLEAR     37  31  78 S10       29.85R
6HR MIN TEMP:  36; 6HR MAX TEMP:  39;

SOUTH ST PAUL  CLEAR     36  32  84 SE6       29.87R
LAKE ELMO      FAIR      34  32  93 S5        29.87S WCI  30
$$
MNZ001>005-007-008-013>017-022>024-027-028-190100-
   Northwest Minnesota

CITY           SKY/WX    TMP DP  RH WIND       PRES   REMARKS
BEMIDJI        CLOUDY    38  26  62 S9        29.72S
HALLOCK        CLOUDY    27  21  80 S15       29.66S WCI  15
ROSEAU         CLOUDY    28  21  74 S7        29.68S WCI  21
WARROAD        CLOUDY    25  21  86 CALM      29.69S
THIEF RVR FALL   N/A     29  23  78 S9        29.71R WCI  20
CROOKSTON      CLOUDY    28  25  86 S15       29.70F WCI  17
FOSSTON        CLOUDY    28  21  74 S12       29.72S WCI  18
DETROIT LAKES  CLOUDY    34  27  75 S6        29.75S WCI  29
MOORHEAD       CLOUDY    32  27  80 S9        29.75S WCI  24
PARK RAPIDS    CLOUDY    29  20  69 S7        29.74S WCI  22
MAHNOMEN       FAIR      32  24  72 S7        29.72S WCI  26
$$
MNZ006-009>011-018-025>026-190100-
   North Central Minnesota

CITY           SKY/WX    TMP DP  RH WIND       PRES   REMARKS
BAUDETTE       CLOUDY    30  22  72 SE5       29.69S WCI  25
FLAG ISLAND    CLOUDY    27  21  80 SE10      29.68F WCI  17
INTL FALLS     CLOUDY    30  22  72 SE5       29.72S WCI  25
6HR MIN TEMP:  28; 6HR MAX TEMP:  38;

WASKISH        CLOUDY    30  27  86 CALM      29.71R
BIG FORK       CLOUDY    36  25  64 CALM      29.74S
LONGVILLE      CLOUDY    36  25  64 SE8       29.76S
GRAND RAPIDS   CLOUDY    36  25  64 S7        29.78R
CRANE LAKE     CLOUDY    25  23  93 CALM      29.77S
ORR            CLOUDY    34  23  64 CALM      29.73S
COOK           CLOUDY    34  25  69 CALM      29.76S
WALKER         FAIR      37  25  61 S6        29.74S
$$
MNZ012-019>021-037-190100-
   Northeast Minnesota

CITY           SKY/WX    TMP DP  RH WIND       PRES   REMARKS
DULUTH         CLOUDY    36  26  67 SW9       29.79S
6HR MIN TEMP:  35; 6HR MAX TEMP:  40;

ELY            CLOUDY    28  23  80 CALM      29.76S
HIBBING        CLOUDY    31  24  75 S3        29.77R
EVELETH        CLOUDY    31  26  81 CALM      29.79R
DULUTH HARBOR  CLOUDY    37  28  70 CALM      29.82S
TWO HARBORS    CLOUDY    37  28  70 W5        29.78R
SILVER BAY     CLOUDY    34  28  80 CALM      29.78R
GRAND MARAIS     N/A     30  28  92 CALM      29.79S
G MARAIS ARPRT CLOUDY    28  25  86 CALM      29.76S
$$
MNZ029>031-032-039>041-046>048-054>057-064-190100-
   West Central Minnesota

CITY           SKY/WX    TMP DP  RH WIND       PRES   REMARKS
FERGUS FALLS   CLOUDY    34  27  75 SE8       29.80R WCI  27
WHEATON        CLEAR     37  34  87 SE7       29.76S
MORRIS         CLEAR     34  28  80 SE8       29.75F WCI  27
ALEXANDRIA     CLOUDY    32  26  78 SE6       29.77F WCI  26
ELBOW LAKE     FAIR      32  28  84 E8        29.75F FOG     WCI  25
WADENA         CLOUDY    32  25  74 S5        29.76S WCI  27
GLENWOOD       CLOUDY    32  27  80 SE6       29.78F WCI  26
APPLETON       CLOUDY    36  28  75 SE6       29.77R
ORTONVILLE     CLOUDY    34  27  75 CALM      29.75S
MADISON        CLEAR     36  30  80 S9        29.76F
WILLMAR        FAIR      34  30  86 SE8       29.81S WCI  27
$$
MNZ033>034-036-042>043-049>051-058-059-190100-
   Central Minnesota

CITY           SKY/WX    TMP DP  RH WIND       PRES   REMARKS
ST CLOUD       CLOUDY    31  28  89 S7        29.82S WCI  24
6HR MIN TEMP:  31; 6HR MAX TEMP:  38;

SAUK CENTRE    FAIR      31  28  86 SE6       29.79S WCI  25
PAYNESVILLE    CLOUDY    34  31  89 SE6       29.81S WCI  28
AITKIN         CLOUDY    36  23  60 S3        29.78S
PINE RIVER     CLOUDY    32  25  74 S6        29.81S WCI  26
BRAINERD       CLOUDY    32  26  78 S8        29.79S WCI  25
STAPLES        CLOUDY    30  25  80 S5        29.77F WCI  25
LONG PRAIRIE   FAIR      30  27  86 E3        29.79S
LITTLE FALLS   CLOUDY    32  27  80 SE3       29.80F
LITCHFIELD     CLOUDY    36  34  93 S3        29.82S
BUFFALO        CLEAR     35  30  83 CALM      29.85R
MAPLE LAKE     CLEAR     34  32  92 CALM      29.84S
HUTCHINSON     CLOUDY    34  33  95 SE5       29.84S WCI  30
$$
MNZ037-044-045-052-053-190100-
   East Central Minnesota

CITY           SKY/WX    TMP DP  RH WIND       PRES   REMARKS
PRINCETON      CLOUDY    34  28  80 CALM      29.83F
MORA           CLEAR     34  27  75 S5        29.84S WCI  30
CAMBRIDGE      CLEAR     36  27  69 CALM      29.82S
RUSH CITY      CLEAR     36  28  75 S6        29.84S
MOOSE LAKE     CLOUDY    34  27  75 S3        29.80S
HINCKLEY       FAIR      34  28  80 S3        29.82F
CLOQUET        CLOUDY    36  25  64 S5        29.80S
MCGREGOR       CLOUDY    34  27  75 S3        29.79S
$$
MNZ071>073-080-081-089-090-097-098-190100-
   Southwest Minnesota

CITY           SKY/WX    TMP DP  RH WIND       PRES   REMARKS
MONTEVIDEO     CLOUDY    36  30  80 S8        29.79F
GRANITE FALLS  CLEAR     35  32  90 SE10      29.81S WCI  27
CANBY          CLOUDY    39  32  77 SW14      29.76F
MARSHALL       CLEAR     37  33  85 SW14      29.78F
REDWOOD FALLS  CLEAR     35  30  82 S9        29.81S WCI  28
OLIVIA         CLEAR     36  32  87 S9        29.81S
PIPESTONE      CLOUDY    37  36  93 S12       29.78F
WINDOM         CLEAR     39  37  93 S7        29.83S
WORTHINGTON    CLEAR     39  36  89 S16       29.82F
JACKSON        PTCLDY    36  34  93 S10       29.85F
TRACY          CLEAR     38  36  91 S16G23    29.79S
SLAYTON        CLEAR     36  35  96 S10       29.81F
$$
MNZ065>067-074>077-082>085-091>093-190100-
   South Central Minnesota

CITY           SKY/WX    TMP DP  RH WIND       PRES   REMARKS
MANKATO        CLEAR     36  34  92 S12       29.86F
NEW ULM        CLEAR     36  34  93 S10       29.84R
ST JAMES       CLEAR     37  36  93 S9        29.86S
FAIRMONT       CLEAR     37  35  92 S14       29.87S
GLENCOE        CLEAR     36  34  94 S6        29.84R
FARIBAULT      CLEAR     36  32  87 S9        29.88S
OWATONNA       CLEAR     36  30  80 S13       29.88F
WASECA         CLEAR     34  32  93 S9        29.89F WCI  26
ALBERT LEA     CLEAR     36  34  93 S8        29.90S
$$
MNZ078>079-086>088-094>096-190100-
   Southeast Minnesota

CITY           SKY/WX    TMP DP  RH WIND       PRES   REMARKS
ROCHESTER      CLOUDY    31  30  96 S13       29.92R WCI  21
6HR MIN TEMP:  30; 6HR MAX TEMP:  33;

RED WING       CLEAR     36  30  80 S3        29.89S
STANTON        CLEAR     35  32  87 S12       29.86S WCI  27
DODGE CENTER   CLOUDY    32  30  93 S12       29.90S WCI  23
WINONA         CLOUDY    34  32  93 CALM      29.95S
AUSTIN         CLOUDY    32  30  93 S9        29.92S WCI  24
PRESTON        CLOUDY    31  30  96 S17       29.93S FOG     WCI  19
$$
ABBREVIATIONS USED IN REMARKS
   TC - TEMPERATURES IN CELSIUS
  WCI - WIND CHILL INDEX
   HX - HEAT INDEX
  VSB - VISIBILITY
$$



USA.gov is the U.S. government's official web portal to all federal, state and local government web resources and services.